ICS-EF (ISS DEB)

Last updated on Fri Mar 17 2023 00:02:06 GMT+0000 (Coordinated Universal Time)

1 45265U 98067RJ 23075.17701116 .02369745 12071-4 57754-3 0 9995 2 45265 51.6151 353.7844 0003949 225.8911 283.9771 16.28553166174473

Satellite not in orbit